Location: Chabot Space and Science Center
(37.8191°N, 122.1819°W)
Time: 14:19:02
(UTC-08:00)

ISS - Pass Details

Date: 03 December 2021
Orbit: 413 x 422 km, 51.6° (Epoch: 20 January)

Event Time Altitude Azimuth Distance (km) Brightness Sun altitude
Rises 18:54:26 0° 314° (NW) 2,381 0.6 -24.1°
Reaches altitude 10° 18:56:38 10° 322° (NW) 1,511 -0.6 -24.5°
Enters shadow 18:57:17 15° 327° (NNW) 1,265 -1.1 -24.6°
